| time (UTC) | temp F | wind direction | speed knots | gust knots | rain 1hr in | rain 24hr in | rain mn in | humidity % | barometer mb |
| 20260505130240 | 43 | 225 | 2.6 | 7.0 | 0.00 | 0.00 | 0.00 | 61 | 1007.0 |
| 20260505124731 | 42 | 325 | 4.3 | 6.1 | 0.00 | 0.00 | 0.00 | 62 | 1006.6 |
| 20260505124228 | 42 | 230 | 2.6 | 5.2 | 0.00 | 0.00 | 0.00 | 63 | 1006.6 |
| 20260505123723 | 42 | 256 | 2.6 | 3.5 | 0.00 | 0.00 | 0.00 | 63 | 1006.4 |
| 20260505123220 | 42 | 247 | 2.6 | 2.6 | 0.00 | 0.00 | 0.00 | 64 | 1006.4 |
| 20260505122716 | 41 | 267 | 1.7 | 5.2 | 0.00 | 0.00 | 0.00 | 65 | 1006.2 |
| 20260505122213 | 41 | 210 | 2.6 | 5.2 | 0.00 | 0.00 | 0.00 | 65 | 1006.1 |
| 20260505121705 | 41 | 263 | 1.7 | 6.1 | 0.00 | 0.00 | 0.00 | 67 | 1006.0 |
| 20260505121201 | 40 | 220 | 2.6 | 6.1 | 0.00 | 0.00 | 0.00 | 67 | 1005.9 |
| 20260505120657 | 39 | 232 | 2.6 | 3.5 | 0.00 | 0.00 | 0.00 | 68 | 1005.6 |
| 20260505120153 | 39 | 224 | 1.7 | 3.5 | 0.00 | 0.00 | 0.00 | 69 | 1005.4 |
| 20260505115646 | 39 | 265 | 3.5 | 3.5 | 0.00 | 0.00 | 0.00 | 69 | 1005.2 |
| 20260505115144 | 38 | 260 | 2.6 | 5.2 | 0.00 | 0.00 | 0.00 | 70 | 1005.5 |
| 20260505114636 | 38 | 208 | 1.7 | 2.6 | 0.00 | 0.00 | 0.00 | 70 | 1005.4 |
| 20260505114133 | 37 | 213 | 1.7 | 1.7 | 0.00 | 0.00 | 0.00 | 71 | 1005.3 |
| 20260505113629 | 37 | 206 | 0.9 | 2.6 | 0.00 | 0.00 | 0.00 | 70 | 1005.5 |
| 20260505113126 | 37 | 221 | 1.7 | 3.5 | 0.00 | 0.00 | 0.00 | 71 | 1005.5 |
| 20260505112622 | 37 | 213 | 1.7 | 2.6 | 0.00 | 0.00 | 0.00 | 71 | 1005.3 |
| 20260505112120 | 36 | 211 | 1.7 | 1.7 | 0.00 | 0.00 | 0.00 | 73 | 1005.3 |
| 20260505111614 | 36 | 230 | 1.7 | 2.6 | 0.00 | 0.00 | 0.00 | 72 | 1005.4 |
| 20260505111110 | 36 | 218 | 1.7 | 2.6 | 0.00 | 0.00 | 0.00 | 72 | 1005.2 |
| 20260505110607 | 36 | 214 | 1.7 | 1.7 | 0.00 | 0.00 | 0.00 | 73 | 1005.2 |
| 20260505110104 | 36 | 226 | 2.6 | 2.6 | 0.00 | 0.00 | 0.00 | 72 | 1005.2 |
| 20260505102039 | 38 | 212 | 0.9 | 1.7 | 0.00 | 0.00 | 0.00 | 68 | 1004.8 |
| 20260505101537 | 38 | 223 | 1.7 | 1.7 | 0.00 | 0.00 | 0.00 | 67 | 1004.7 |
| 20260505101033 | 38 | 213 | 1.7 | 2.6 | 0.00 | 0.00 | 0.00 | 66 | 1004.7 |
| 20260505100531 | 38 | 220 | 0.9 | 2.6 | 0.00 | 0.00 | 0.00 | 67 | 1004.8 |
| 20260505100028 | 38 | 220 | 1.7 | 2.6 | 0.00 | 0.00 | 0.00 | 67 | 1004.9 |
| 20260505095524 | 37 | 211 | 1.7 | 1.7 | 0.00 | 0.00 | 0.00 | 67 | 1004.6 |
| 20260505095020 | 37 | 203 | 0.9 | 1.7 | 0.00 | 0.00 | 0.00 | 68 | 1004.5 |
| 20260505094517 | 37 | 204 | 0.9 | 1.7 | 0.00 | 0.00 | 0.00 | 67 | 1004.5 |
| 20260505094013 | 37 | 193 | 0.9 | 1.7 | 0.00 | 0.00 | 0.00 | 67 | 1004.4 |
| 20260505093509 | 38 | 192 | 0.9 | 1.7 | 0.00 | 0.00 | 0.00 | 68 | 1004.5 |
| 20260505093007 | 37 | 193 | 0.9 | 1.7 | 0.00 | 0.00 | 0.00 | 69 | 1004.4 |
| 20260505092504 | 37 | 186 | 0.9 | 0.9 | 0.00 | 0.00 | 0.00 | 69 | 1004.3 |
| 20260505092002 | 37 | 195 | 0.0 | 1.7 | 0.00 | 0.00 | 0.00 | 68 | 1004.2 |
| 20260505091459 | 37 | 193 | 0.9 | 0.9 | 0.00 | 0.00 | 0.00 | 69 | 1004.1 |
| 20260505090957 | 37 | 195 | 0.9 | 0.9 | 0.00 | 0.00 | 0.00 | 69 | 1004.1 |
| 20260505090455 | 37 | 195 | 0.9 | 1.7 | 0.00 | 0.00 | 0.00 | 69 | 1004.0 |
| 20260505085952 | 37 | 185 | 0.9 | 0.9 | 0.00 | 0.00 | 0.00 | 70 | 1004.0 |
| 20260505085450 | 36 | 186 | 0.9 | 0.9 | 0.00 | 0.00 | 0.00 | 71 | 1004.0 |
| 20260505084948 | 36 | 186 | 0.0 | 0.9 | 0.00 | 0.00 | 0.00 | 70 | 1003.6 |
| 20260505084446 | 37 | 184 | 0.0 | 0.0 | 0.00 | 0.00 | 0.00 | 70 | 1003.7 |
| 20260505083943 | 37 | 184 | 0.0 | 1.7 | 0.00 | 0.00 | 0.00 | 68 | 1003.5 |
| 20260505083441 | 37 | 184 | 0.0 | 0.9 | 0.00 | 0.00 | 0.00 | 67 | 1003.6 |
| 20260505082937 | 37 | 184 | 0.9 | 1.7 | 0.00 | 0.00 | 0.00 | 67 | 1003.5 |
| 20260505082432 | 37 | 185 | 0.9 | 0.9 | 0.00 | 0.00 | 0.00 | 66 | 1003.3 |
| 20260505081930 | 37 | 193 | 0.0 | 0.0 | 0.00 | 0.00 | 0.00 | 66 | 1003.3 |
| 20260505081427 | 37 | 193 | 0.0 | 0.0 | 0.00 | 0.00 | 0.00 | 66 | 1003.3 |
| 20260505080923 | 38 | 193 | 0.0 | 0.0 | 0.00 | 0.00 | 0.00 | 65 | 1003.4 |
| 20260505080419 | 38 | 193 | 0.0 | 0.0 | 0.00 | 0.00 | 0.00 | 64 | 1003.2 |
| 20260505075914 | 39 | 193 | 0.0 | 0.0 | 0.00 | 0.00 | 0.00 | 62 | 1003.3 |
| 20260505075412 | 39 | 200 | 0.9 | 0.9 | 0.00 | 0.00 | 0.00 | 61 | 1003.3 |
| 20260505074909 | 39 | 198 | 0.9 | 1.7 | 0.00 | 0.00 | 0.00 | 60 | 1003.2 |
| 20260505074406 | 39 | 206 | 0.0 | 0.0 | 0.00 | 0.00 | 0.00 | 60 | 1003.4 |
| 20260505073903 | 40 | 206 | 0.0 | 0.9 | 0.00 | 0.00 | 0.00 | 59 | 1003.3 |
| 20260505073401 | 40 | 207 | 0.9 | 0.9 | 0.00 | 0.00 | 0.00 | 58 | 1003.4 |
| 20260505072858 | 41 | 201 | 0.0 | 0.9 | 0.00 | 0.00 | 0.00 | 58 | 1003.3 |
| 20260505072354 | 41 | 205 | 0.9 | 1.7 | 0.00 | 0.00 | 0.00 | 56 | 1003.3 |
| 20260505071850 | 41 | 212 | 1.7 | 1.7 | 0.00 | 0.00 | 0.00 | 57 | 1003.4 |
| 20260505071347 | 41 | 205 | 0.0 | 1.7 | 0.00 | 0.00 | 0.00 | 55 | 1003.4 |
| 20260505070845 | 42 | 234 | 1.7 | 3.5 | 0.00 | 0.00 | 0.00 | 54 | 1003.3 |
| 20260505070341 | 41 | 290 | 0.9 | 2.6 | 0.00 | 0.00 | 0.00 | 55 | 1003.4 |
| 20260505065837 | 41 | 281 | 2.6 | 2.6 | 0.00 | 0.00 | 0.00 | 55 | 1003.4 |
| 20260505065334 | 41 | 224 | 0.9 | 1.7 | 0.00 | 0.00 | 0.00 | 55 | 1003.5 |
| 20260505064831 | 42 | 209 | 0.9 | 1.7 | 0.00 | 0.00 | 0.00 | 55 | 1003.4 |
| 20260505064327 | 42 | 200 | 1.7 | 2.6 | 0.00 | 0.00 | 0.00 | 54 | 1003.3 |
| 20260505063826 | 42 | 256 | 2.6 | 2.6 | 0.00 | 0.00 | 0.00 | 53 | 1003.3 |
| 20260505063321 | 42 | 234 | 1.7 | 1.7 | 0.00 | 0.00 | 0.00 | 53 | 1003.5 |
| 20260505062818 | 43 | 199 | 0.9 | 1.7 | 0.00 | 0.00 | 0.00 | 52 | 1003.4 |
| 20260505062316 | 43 | 125 | 0.0 | 3.5 | 0.00 | 0.00 | 0.00 | 52 | 1003.4 |
| 20260505061812 | 43 | 253 | 1.7 | 5.2 | 0.00 | 0.00 | 0.00 | 52 | 1003.4 |
| 20260505061311 | 43 | 313 | 1.7 | 3.5 | 0.00 | 0.00 | 0.00 | 51 | 1003.4 |
| 20260505060808 | 44 | 245 | 2.6 | 6.1 | 0.00 | 0.00 | 0.00 | 51 | 1003.3 |
| 20260505060305 | 44 | 341 | 2.6 | 5.2 | 0.00 | 0.00 | 0.00 | 50 | 1003.3 |
| 20260505055800 | 44 | 293 | 3.5 | 8.7 | 0.00 | 0.00 | 0.00 | 50 | 1003.4 |
| 20260505055256 | 44 | 326 | 1.7 | 7.0 | 0.00 | 0.00 | 0.00 | 50 | 1003.4 |
| 20260505054754 | 44 | 268 | 3.5 | 3.5 | 0.00 | 0.00 | 0.00 | 51 | 1003.2 |
| 20260505054251 | 44 | 278 | 1.7 | 3.5 | 0.00 | 0.00 | 0.00 | 51 | 1003.2 |
| 20260505053749 | 44 | 230 | 3.5 | 6.1 | 0.00 | 0.00 | 0.00 | 50 | 1003.0 |
| 20260505053246 | 44 | 226 | 1.7 | 2.6 | 0.00 | 0.00 | 0.00 | 50 | 1003.1 |
| 20260505052743 | 45 | 211 | 0.9 | 3.5 | 0.00 | 0.00 | 0.00 | 49 | 1003.2 |
| 20260505052240 | 45 | 322 | 3.5 | 5.2 | 0.00 | 0.00 | 0.00 | 48 | 1003.1 |
| 20260505051737 | 45 | 279 | 7.0 | 8.7 | 0.00 | 0.00 | 0.00 | 47 | 1003.1 |
| 20260505051235 | 46 | 214 | 2.6 | 7.0 | 0.00 | 0.00 | 0.00 | 47 | 1002.9 |
| 20260505050732 | 46 | 303 | 2.6 | 7.0 | 0.00 | 0.00 | 0.00 | 47 | 1002.9 |
| 20260505050225 | 46 | 0 | 4.3 | 7.8 | 0.00 | 0.00 | 0.00 | 47 | 1002.9 |
| 20260505041654 | 48 | 283 | 10.4 | 13.0 | 0.00 | 0.00 | 0.00 | 46 | 1002.2 |
| 20260505041152 | 48 | 252 | 6.1 | 15.6 | 0.00 | 0.00 | 0.00 | 47 | 1002.0 |
| 20260505040649 | 48 | 332 | 2.6 | 8.7 | 0.00 | 0.00 | 0.00 | 47 | 1001.9 |
| 20260505040146 | 48 | 327 | 4.3 | 13.0 | 0.00 | 0.00 | 0.00 | 47 | 1001.8 |
| 20260505035642 | 49 | 302 | 3.5 | 9.6 | 0.00 | 0.00 | 0.00 | 46 | 1001.6 |
| 20260505035138 | 49 | 282 | 3.5 | 6.1 | 0.00 | 0.00 | 0.00 | 46 | 1001.6 |
| 20260505034635 | 49 | 335 | 4.3 | 9.6 | 0.00 | 0.00 | 0.00 | 45 | 1001.4 |
| 20260505034132 | 50 | 321 | 4.3 | 8.7 | 0.00 | 0.00 | 0.00 | 45 | 1001.3 |
| 20260505033628 | 50 | 199 | 4.3 | 13.9 | 0.00 | 0.00 | 0.00 | 44 | 1001.1 |
| 20260505033127 | 50 | 333 | 3.5 | 9.6 | 0.00 | 0.00 | 0.00 | 44 | 1001.2 |
| 20260505032625 | 50 | 273 | 5.2 | 8.7 | 0.00 | 0.00 | 0.00 | 45 | 1001.1 |
| 20260505032121 | 51 | 277 | 2.6 | 6.1 | 0.00 | 0.00 | 0.00 | 46 | 1000.7 |
| 20260505031618 | 51 | 255 | 7.8 | 11.3 | 0.00 | 0.00 | 0.00 | 45 | 1000.8 |
| 20260505031114 | 51 | 237 | 8.7 | 14.8 | 0.00 | 0.00 | 0.00 | 46 | 1000.6 |
| 20260505030611 | 52 | 330 | 3.5 | 12.2 | 0.00 | 0.00 | 0.00 | 46 | 1000.4 |
| 20260505030107 | 52 | 268 | 5.2 | 9.6 | 0.00 | 0.00 | 0.00 | 46 | 1000.5 |
| 20260505025603 | 52 | 334 | 4.3 | 9.6 | 0.00 | 0.00 | 0.00 | 45 | 1000.4 |
| 20260505025102 | 52 | 293 | 9.6 | 15.6 | 0.00 | 0.00 | 0.00 | 45 | 1000.3 |
| 20260505024559 | 53 | 273 | 5.2 | 9.6 | 0.00 | 0.00 | 0.00 | 46 | 1000.3 |
| 20260505024056 | 53 | 341 | 7.0 | 8.7 | 0.00 | 0.00 | 0.00 | 45 | 999.9 |
| 20260505023553 | 53 | 307 | 5.2 | 13.9 | 0.00 | 0.00 | 0.00 | 44 | 999.9 |
| 20260505023051 | 53 | 273 | 5.2 | 9.6 | 0.00 | 0.00 | 0.00 | 44 | 999.5 |
| 20260505022548 | 53 | 225 | 1.7 | 5.2 | 0.00 | 0.00 | 0.00 | 44 | 999.5 |
| 20260505022045 | 54 | 223 | 3.5 | 11.3 | 0.00 | 0.00 | 0.00 | 43 | 999.5 |
| 20260505021541 | 54 | 351 | 7.8 | 12.2 | 0.00 | 0.00 | 0.00 | 43 | 999.5 |
| 20260505021033 | 54 | 312 | 5.2 | 12.2 | 0.00 | 0.00 | 0.00 | 44 | 999.3 |
| 20260505020532 | 54 | 351 | 6.1 | 11.3 | 0.00 | 0.00 | 0.00 | 43 | 999.2 |
| 20260505020030 | 55 | 300 | 5.2 | 12.2 | 0.00 | 0.00 | 0.00 | 43 | 999.2 |
| 20260505015527 | 55 | 326 | 11.3 | 15.6 | 0.00 | 0.00 | 0.00 | 42 | 999.2 |
| 20260505015024 | 55 | 305 | 5.2 | 8.7 | 0.00 | 0.00 | 0.00 | 42 | 998.9 |
| 20260505014520 | 55 | 243 | 3.5 | 9.6 | 0.00 | 0.00 | 0.00 | 42 | 998.9 |
| 20260505014018 | 55 | 248 | 3.5 | 5.2 | 0.00 | 0.00 | 0.00 | 41 | 998.8 |
| 20260505013515 | 56 | 335 | 3.5 | 7.8 | 0.00 | 0.00 | 0.00 | 41 | 998.6 |
| 20260505013012 | 56 | 267 | 3.5 | 16.5 | 0.00 | 0.00 | 0.00 | 40 | 998.5 |
| 20260505012510 | 56 | 240 | 6.1 | 11.3 | 0.00 | 0.00 | 0.00 | 40 | 998.5 |
| 20260505012007 | 56 | 277 | 7.0 | 9.6 | 0.00 | 0.00 | 0.00 | 40 | 998.4 |
| 20260505011503 | 56 | 255 | 4.3 | 7.8 | 0.00 | 0.00 | 0.00 | 40 | 998.2 |
| 20260505011000 | 57 | 304 | 7.8 | 11.3 | 0.00 | 0.00 | 0.00 | 40 | 998.2 |
| 20260505010455 | 57 | 349 | 7.8 | 11.3 | 0.00 | 0.00 | 0.00 | 39 | 998.0 |
| 20260505005951 | 57 | 281 | 2.6 | 7.8 | 0.00 | 0.00 | 0.00 | 40 | 998.0 |
| 20260505005448 | 58 | 250 | 1.7 | 11.3 | 0.00 | 0.00 | 0.00 | 40 | 997.9 |
| 20260505004946 | 58 | 274 | 3.5 | 11.3 | 0.00 | 0.00 | 0.00 | 39 | 997.9 |
| 20260505004443 | 59 | 337 | 6.1 | 14.8 | 0.00 | 0.00 | 0.00 | 39 | 997.7 |
| 20260505003940 | 59 | 303 | 7.0 | 8.7 | 0.00 | 0.00 | 0.00 | 36 | 997.5 |
| 20260505003437 | 60 | 255 | 5.2 | 9.6 | 0.00 | 0.00 | 0.00 | 36 | 997.6 |
| 20260505002933 | 60 | 305 | 7.8 | 11.3 | 0.00 | 0.00 | 0.00 | 36 | 997.4 |
| 20260505002429 | 61 | 248 | 5.2 | 8.7 | 0.00 | 0.00 | 0.00 | 36 | 997.1 |
| 20260505001928 | 61 | 199 | 1.7 | 6.1 | 0.00 | 0.00 | 0.00 | 36 | 997.0 |
| 20260505001425 | 61 | 357 | 3.5 | 8.7 | 0.00 | 0.00 | 0.00 | 35 | 996.9 |
| 20260505000922 | 62 | 239 | 2.6 | 7.0 | 0.00 | 0.00 | 0.00 | 35 | 996.8 |
| 20260505000420 | 62 | 300 | 7.0 | 12.2 | 0.00 | 0.00 | 0.00 | 34 | 996.9 |
| 20260504235916 | 62 | 271 | 5.2 | 12.2 | 0.00 | 0.00 | 0.00 | 34 | 996.8 |
| 20260504235414 | 62 | 240 | 5.2 | 9.6 | 0.00 | 0.00 | 0.00 | 34 | 996.7 |
| 20260504234910 | 62 | 244 | 7.8 | 14.8 | 0.00 | 0.00 | 0.00 | 34 | 996.6 |
| 20260504234408 | 62 | 305 | 3.5 | 8.7 | 0.00 | 0.00 | 0.00 | 34 | 996.4 |
| 20260504233904 | 63 | 318 | 7.0 | 13.9 | 0.00 | 0.00 | 0.00 | 33 | 996.3 |
| 20260504233359 | 63 | 277 | 9.6 | 16.5 | 0.00 | 0.00 | 0.00 | 33 | 996.1 |
| 20260504232856 | 63 | 262 | 6.1 | 8.7 | 0.00 | 0.00 | 0.00 | 34 | 996.3 |
| 20260504232353 | 64 | 282 | 7.8 | 11.3 | 0.00 | 0.00 | 0.00 | 34 | 996.2 |
| 20260504231850 | 64 | 222 | 5.2 | 13.0 | 0.00 | 0.00 | 0.00 | 33 | 996.1 |
| 20260504231347 | 64 | 228 | 2.6 | 11.3 | 0.00 | 0.00 | 0.00 | 34 | 996.3 |
| 20260504230843 | 64 | 177 | 3.5 | 9.6 | 0.00 | 0.00 | 0.00 | 33 | 996.2 |
| 20260504230341 | 65 | 279 | 6.1 | 7.8 | 0.00 | 0.00 | 0.00 | 33 | 996.1 |
| 20260504225839 | 65 | 229 | 2.6 | 9.6 | 0.00 | 0.00 | 0.00 | 33 | 996.3 |
| 20260504225335 | 65 | 251 | 7.8 | 12.2 | 0.00 | 0.00 | 0.00 | 32 | 996.1 |
| 20260504224833 | 65 | 270 | 2.6 | 7.8 | 0.00 | 0.00 | 0.00 | 31 | 996.1 |
| 20260504224330 | 65 | 227 | 6.1 | 8.7 | 0.00 | 0.00 | 0.00 | 30 | 996.2 |
| 20260504223826 | 65 | 283 | 3.5 | 6.1 | 0.00 | 0.00 | 0.00 | 32 | 996.1 |
| 20260504223322 | 66 | 264 | 4.3 | 9.6 | 0.00 | 0.00 | 0.00 | 31 | 996.1 |
| 20260504222819 | 66 | 290 | 5.2 | 7.8 | 0.00 | 0.00 | 0.00 | 30 | 995.7 |
| 20260504222316 | 66 | 213 | 2.6 | 9.6 | 0.00 | 0.00 | 0.00 | 31 | 995.7 |
| 20260504221814 | 66 | 285 | 5.2 | 9.6 | 0.00 | 0.00 | 0.00 | 29 | 995.7 |
| 20260504221310 | 66 | 289 | 5.2 | 11.3 | 0.00 | 0.00 | 0.00 | 30 | 995.8 |
| 20260504220807 | 66 | 261 | 3.5 | 7.0 | 0.00 | 0.00 | 0.00 | 30 | 995.6 |
| 20260504220304 | 67 | 258 | 7.8 | 13.0 | 0.00 | 0.00 | 0.00 | 29 | 995.9 |
| 20260504215802 | 67 | 304 | 7.8 | 11.3 | 0.00 | 0.00 | 0.00 | 30 | 995.9 |
| 20260504215258 | 68 | 226 | 6.1 | 11.3 | 0.00 | 0.00 | 0.00 | 30 | 995.9 |
| 20260504214753 | 67 | 204 | 6.1 | 13.0 | 0.00 | 0.00 | 0.00 | 30 | 995.8 |
| 20260504214250 | 67 | 231 | 7.0 | 11.3 | 0.00 | 0.00 | 0.00 | 29 | 995.7 |
| 20260504213747 | 68 | 280 | 8.7 | 19.1 | 0.00 | 0.00 | 0.00 | 28 | 995.6 |
| 20260504213238 | 68 | 227 | 5.2 | 11.3 | 0.00 | 0.00 | 0.00 | 29 | 995.4 |
| 20260504212735 | 68 | 225 | 7.8 | 14.8 | 0.00 | 0.00 | 0.00 | 29 | 995.5 |
| 20260504212231 | 69 | 230 | 6.1 | 11.3 | 0.00 | 0.00 | 0.00 | 30 | 995.5 |
| 20260504211729 | 69 | 255 | 9.6 | 12.2 | 0.00 | 0.00 | 0.00 | 29 | 995.5 |
| 20260504211225 | 69 | 317 | 7.8 | 13.9 | 0.00 | 0.00 | 0.00 | 29 | 995.5 |
| 20260504210722 | 69 | 255 | 5.2 | 12.2 | 0.00 | 0.00 | 0.00 | 29 | 995.3 |
| 20260504210214 | 70 | 335 | 4.3 | 8.7 | 0.00 | 0.00 | 0.00 | 28 | 995.2 |
| 20260504205711 | 70 | 257 | 7.8 | 13.0 | 0.00 | 0.00 | 0.00 | 29 | 995.0 |
| 20260504205208 | 71 | 333 | 5.2 | 11.3 | 0.00 | 0.00 | 0.00 | 30 | 995.2 |
| 20260504204706 | 70 | 241 | 5.2 | 9.6 | 0.00 | 0.00 | 0.00 | 31 | 995.2 |
| 20260504204205 | 72 | 261 | 7.8 | 11.3 | 0.00 | 0.00 | 0.00 | 30 | 995.0 |
| 20260504203703 | 72 | 244 | 3.5 | 6.1 | 0.00 | 0.00 | 0.00 | 35 | 994.8 |
| 20260504203200 | 72 | 229 | 4.3 | 7.8 | 0.00 | 0.00 | 0.00 | 33 | 994.8 |
| 20260504202654 | 71 | 275 | 6.1 | 13.9 | 0.00 | 0.00 | 0.00 | 33 | 994.8 |
| 20260504202152 | 72 | 235 | 13.0 | 14.8 | 0.00 | 0.00 | 0.00 | 32 | 994.4 |
| 20260504201649 | 71 | 194 | 6.1 | 9.6 | 0.00 | 0.00 | 0.00 | 33 | 994.3 |
| 20260504201146 | 71 | 250 | 6.1 | 8.7 | 0.00 | 0.00 | 0.00 | 35 | 994.6 |
| 20260504200643 | 71 | 230 | 5.2 | 8.7 | 0.00 | 0.00 | 0.00 | 35 | 994.6 |
| 20260504200140 | 72 | 222 | 9.6 | 13.9 | 0.00 | 0.00 | 0.00 | 33 | 994.6 |
| 20260504195636 | 72 | 224 | 4.3 | 8.7 | 0.00 | 0.00 | 0.00 | 34 | 994.4 |
| 20260504195132 | 72 | 220 | 5.2 | 13.0 | 0.00 | 0.00 | 0.00 | 34 | 994.2 |
| 20260504194629 | 72 | 268 | 7.8 | 12.2 | 0.00 | 0.00 | 0.00 | 34 | 994.5 |
| 20260504194125 | 71 | 232 | 10.4 | 15.6 | 0.00 | 0.00 | 0.00 | 34 | 994.5 |
| 20260504193622 | 72 | 228 | 8.7 | 13.9 | 0.00 | 0.00 | 0.00 | 35 | 994.4 |
| 20260504193120 | 71 | 226 | 7.0 | 8.7 | 0.00 | 0.00 | 0.00 | 34 | 994.5 |
| 20260504192618 | 71 | 213 | 5.2 | 12.2 | 0.00 | 0.00 | 0.00 | 38 | 994.6 |
| 20260504192116 | 71 | 228 | 5.2 | 20.9 | 0.00 | 0.00 | 0.00 | 37 | 994.4 |
| 20260504191614 | 72 | 216 | 7.0 | 11.3 | 0.00 | 0.00 | 0.00 | 36 | 994.5 |
| 20260504191110 | 73 | 239 | 7.8 | 12.2 | 0.00 | 0.00 | 0.00 | 35 | 994.5 |
| 20260504190606 | 73 | 245 | 5.2 | 16.5 | 0.00 | 0.00 | 0.00 | 35 | 994.4 |
| 20260504185559 | 73 | 221 | 5.2 | 8.7 | 0.00 | 0.00 | 0.00 | 37 | 994.4 |
| 20260504185055 | 73 | 272 | 7.8 | 16.5 | 0.00 | 0.00 | 0.00 | 36 | 994.3 |
| 20260504184551 | 72 | 251 | 5.2 | 9.6 | 0.00 | 0.00 | 0.00 | 39 | 994.4 |
| 20260504184047 | 73 | 233 | 6.1 | 12.2 | 0.00 | 0.00 | 0.00 | 37 | 994.5 |
| 20260504183544 | 73 | 248 | 7.0 | 12.2 | 0.00 | 0.00 | 0.00 | 36 | 994.3 |
| 20260504183042 | 73 | 322 | 10.4 | 19.1 | 0.00 | 0.00 | 0.00 | 37 | 994.2 |
| 20260504182538 | 72 | 262 | 7.8 | 14.8 | 0.00 | 0.00 | 0.00 | 37 | 994.2 |
| 20260504182036 | 72 | 231 | 10.4 | 13.0 | 0.00 | 0.00 | 0.00 | 37 | 994.7 |
| 20260504181533 | 73 | 242 | 6.1 | 19.1 | 0.00 | 0.00 | 0.00 | 37 | 994.5 |
| 20260504181031 | 72 | 236 | 7.8 | 14.8 | 0.00 | 0.00 | 0.00 | 38 | 994.2 |
| 20260504180530 | 72 | 283 | 7.0 | 14.8 | 0.00 | 0.00 | 0.00 | 38 | 994.3 |
| 20260504180028 | 71 | 256 | 8.7 | 12.2 | 0.00 | 0.00 | 0.00 | 39 | 994.3 |
| 20260504175525 | 71 | 269 | 6.1 | 7.8 | 0.00 | 0.00 | 0.00 | 38 | 994.4 |
| 20260504175022 | 71 | 28 | 7.8 | 15.6 | 0.00 | 0.00 | 0.00 | 37 | 994.1 |
| 20260504174520 | 73 | 220 | 7.8 | 11.3 | 0.00 | 0.00 | 0.00 | 36 | 994.2 |
| 20260504174017 | 72 | 264 | 6.1 | 15.6 | 0.00 | 0.00 | 0.00 | 37 | 994.2 |
| 20260504173513 | 72 | 236 | 6.1 | 12.2 | 0.00 | 0.00 | 0.00 | 38 | 994.3 |
| 20260504173011 | 72 | 237 | 7.0 | 11.3 | 0.00 | 0.00 | 0.00 | 37 | 994.2 |
| 20260504172507 | 71 | 216 | 6.1 | 11.3 | 0.00 | 0.00 | 0.00 | 38 | 994.3 |
| 20260504172003 | 71 | 229 | 4.3 | 11.3 | 0.00 | 0.00 | 0.00 | 38 | 994.3 |
| 20260504171500 | 70 | 262 | 4.3 | 11.3 | 0.00 | 0.00 | 0.00 | 39 | 994.4 |
| 20260504170957 | 70 | 242 | 5.2 | 7.8 | 0.00 | 0.00 | 0.00 | 38 | 994.3 |
| 20260504170453 | 70 | 226 | 6.1 | 15.6 | 0.00 | 0.00 | 0.00 | 39 | 994.5 |
| 20260504160413 | 70 | 232 | 7.8 | 13.0 | 0.00 | 0.00 | 0.00 | 38 | 994.6 |
| 20260504150837 | 69 | 233 | 7.8 | 9.6 | 0.00 | 0.00 | 0.00 | 37 | 994.7 |
| 20260504150334 | 69 | 239 | 5.2 | 8.7 | 0.00 | 0.00 | 0.00 | 38 | 994.7 |
| 20260504141304 | 66 | 230 | 4.3 | 8.7 | 0.00 | 0.00 | 0.00 | 40 | 995.2 |
| 20260504140800 | 66 | 217 | 6.1 | 11.3 | 0.00 | 0.00 | 0.00 | 39 | 995.3 |
| 20260504140256 | 64 | 224 | 5.2 | 9.6 | 0.00 | 0.00 | 0.00 | 40 | 995.3 |